Flag for Germany

Past Weather in Burghausen, Bavaria, Germany — Yesterday and Last 2 Weeks

Now
64 °F

Mild.


Feels Like: 64 °F
Forecast: 76 / 61 °F
Wind: 1 mph from Northwest

Location: Ranshofen
Current Time: Aug 13, 2020 at 8:15:32 am
Latest Report: Aug 13, 2020 at 7:00 am
Visibility: N/A
Pressure29.95 "Hg
Humidity: 91%
Dew Point: 61 °F
Location of BurghausenLocation

Past Weather in Burghausen — Graph

°F

Burghausen Temperature Yesterday

Maximum temperature yesterday: 86 °F (at 5:00 pm)
Minimum temperature yesterday: 66 °F (at 7:00 am)
Average temperature yesterday: 77 °F

High & Low Weather Summary for the Past Weeks

 TemperatureHumidityPressure
High93 °F (Aug 1, 4:00 pm)98% (Aug 3, 6:00 am)30.15 "Hg (Aug 3, 6:00 am)
Low49 °F (Aug 5, 7:00 am)31% (Jul 31, 4:00 pm)29.70 "Hg (Aug 4, 4:00 am)
Average71 °F71%29.99 "Hg
* Reported Jul 29 6:00 am — Aug 13 6:00 am, Burghausen. Weather by CustomWeather, © 2020

Note: Actual official high and low records may vary slightly from our data, if they occured in-between our weather recording intervals... More about our weather records

Burghausen Weather History for the Previous 24 Hours

Scroll right to see more
 ConditionsComfort  
Time TempWeatherWind HumidityBarometerVisibility
6:00 am
Thu, Aug 13
63 °FMild.No wind92%29.95 "HgN/A
5:00 am64 °FMild.1 mph89%29.94 "HgN/A
4:00 am65 °FMild.No wind88%29.95 "HgN/A
3:00 am68 °FMild.1 mph80%29.94 "HgN/A
2:00 am71 °FMild.2 mph73%29.94 "HgN/A
1:00 am72 °FMild.2 mph70%29.95 "HgN/A
12:00 am74 °FMild.3 mph66%29.95 "HgN/A
11:00 pm
Wed, Aug 12
75 °FMild.3 mph63%29.95 "HgN/A
10:00 pm77 °FWarm.3 mph58%29.94 "HgN/A
9:00 pm79 °FWarm.3 mph53%29.92 "HgN/A
8:00 pm82 °FWarm.5 mph45%29.91 "HgN/A
7:00 pm85 °FPleasantly warm.3 mph37%29.91 "HgN/A
6:00 pm85 °FPleasantly warm.6 mph36%29.92 "HgN/A
5:00 pm86 °FPleasantly warm.5 mph35%29.93 "HgN/A
4:00 pm86 °FPleasantly warm.5 mph39%29.94 "HgN/A
3:00 pm85 °FWarm.7 mph41%29.96 "HgN/A
2:00 pm85 °FWarm.6 mph45%29.97 "HgN/A
1:00 pm83 °FWarm.6 mph49%29.98 "HgN/A
12:00 pm80 °FWarm.6 mph58%29.99 "HgN/A
11:00 am78 °FWarm.6 mph63%30.01 "HgN/A
10:00 am75 °FMild.5 mph70%30.01 "HgN/A
9:00 am72 °FMild.5 mph78%30.02 "HgN/A
8:00 am69 °FMild.2 mph84%30.02 "HgN/A
Weather by CustomWeather, © 2020

See weather overview